SCP
0 1 1 1 0 0 0 0 0 0 0 0 1 1 1 1 2 3 4 4 3 2 3 3 2 3 5 7 8 11 12 12 9 7 4 3 3 2 2 2 2 2 2 2
1 1 1 1 0 0 0 0 0 0 0 0 1 1 1 1 2 4 4 4 3 2 2 3 3 4 7 8 10 11 12 12 9 6 4 3 3 3 2 2 2 2 2 2
1 1 1 1 1 1 1 1 1 1 0 1 1 1 1 1 2 4 5 4 3 2 2 2 4 7 10 12 13 13 12 10 7 5 3 3 3 3 4 4 4 3 3 3
1 1 1 0 1 1 1 1 1 1 1 1 1 1 1 1 2 4 5 5 4 3 3 3 6 9 12 13 13 13 10 7 5 4 3 3 3 4 5 5 5 5 4 3
0 0 0 0 1 1 1 1 1 1 2 2 2 2 1 1 3 5 6 6 5 5 4 5 7 9 9 8 8 8 7 5 5 6 5 4 4 5 6 7 7 6 5 4
0 0 0 0 1 1 1 1 1 2 2 3 3 2 2 2 4 6 6 5 5 5 5 5 5 5 5 4 4 4 5 6 7 8 7 5 5 5 7 7 7 7 6 5
0 1 1 0 1 1 1 1 2 2 3 3 3 3 2 2 4 6 5 5 5 5 4 3 3 3 3 3 3 4 6 8 9 10 9 7 5 5 7 7 8 7 6 6
1 1 1 0 1 1 1 1 2 2 2 3 3 2 2 3 4 4 4 4 5 5 4 3 3 3 3 3 3 4 7 9 11 12 11 8 6 6 7 8 8 8 7 7
1 1 0 0 1 1 1 1 2 2 2 2 2 2 3 4 4 4 4 4 6 6 4 3 3 3 3 3 3 5 7 10 13 14 12 8 6 6 8 9 9 9 9 8
1 1 1 1 1 1 1 1 2 2 1 1 1 2 3 4 3 3 3 4 6 6 5 4 4 4 3 3 3 5 8 11 13 13 10 7 6 6 7 9 10 11 10 10
1 1 1 1 1 1 2 2 2 2 1 1 1 1 2 2 2 2 3 5 7 7 5 3 3 4 4 3 3 5 8 10 10 9 7 5 5 5 6 7 8 8 9 10
1 1 1 1 1 2 2 2 2 2 1 1 1 1 1 1 1 3 4 6 7 6 5 3 3 3 4 3 3 4 6 7 7 6 5 4 4 4 5 5 5 5 5 6
0 1 1 1 2 3 3 3 2 1 1 1 0 0 0 0 1 3 5 6 6 6 5 4 3 2 3 3 3 3 4 5 5 4 4 4 4 5 5 4 3 3 2 3
1 1 1 2 3 4 4 3 2 1 1 1 0 0 0 0 2 4 5 5 6 6 6 4 2 2 2 3 3 3 3 4 4 4 4 5 5 5 5 5 4 3 2 2
1 1 1 2 3 4 4 3 2 2 1 1 0 0 0 1 2 4 5 5 6 6 5 4 3 2 2 3 4 4 4 5 6 6 6 6 6 6 6 6 5 4 3 2
1 1 1 2 3 3 4 4 3 2 1 1 0 0 1 2 3 5 7 7 6 6 4 4 3 2 2 3 4 5 6 6 7 7 7 7 7 7 6 5 4 3 3 2
1 1 1 1 2 2 3 3 2 1 1 0 0 0 2 3 4 6 8 8 6 4 4 4 3 3 2 2 4 5 6 7 7 7 7 7 7 6 6 4 3 2 2 2
1 1 1 1 1 1 1 1 1 1 0 0 0 1 3 5 6 8 9 8 6 5 4 4 3 3 3 2 3 5 7 7 8 8 8 7 7 7 6 4 2 2 2 2
0 0 0 0 0 0 0 0 0 0 0 0 1 1 4 6 8 10 10 9 7 6 5 4 3 3 4 4 4 5 7 8 9 10 10 10 9 8 6 3 2 1 1 1
0 0 0 0 0 0 0 0 0 0 1 1 1 2 5 9 12 12 11 10 8 6 5 3 3 4 6 6 6 7 9 11 12 13 13 12 10 7 4 2 1 1 1 1
0 0 0 0 0 1 1 1 0 1 1 1 1 1 4 9 12 13 11 9 7 5 3 2 2 3 5 7 9 11 12 13 13 12 11 9 7 4 2 1 1 0 0 0
0 0 0 0 0 0 1 1 1 1 1 1 1 0 2 4 7 8 8 6 4 3 2 1 1 1 2 5 7 10 10 10 9 7 6 5 3 2 1 0 0 0 0 0
0 0 0 0 0 0 0 0 0 0 1 0 0 0 0 1 2 3 5 4 3 2 1 1 1 0 1 1 3 4 4 3 3 3 2 2 2 1 0 0 0 0 0 0
0 0 0 0 0 0 0 0 0 0 0 0 0 0 0 1 1 2 2 2 1 1 1 1 0 0 0 0 0 0 0 0 1 2 2 1 1 0 0 0 0 0 0 0
0 0 0 0 0 0 0 0 0 0 0 0 0 0 0 1 1 1 1 1 0 1 1 0 0 0 0 0 0 0 0 1 1 1 1 1 0 0 0 0 0 0 0 0
0 0 0 0 0 0 0 0 0 0 0 0 0 0 0 1 1 1 0 0 0 1 1 1 0 0 0 0 0 0 1 1 1 1 0 0 0 0 0 0 0 0 0 0
0 0 0 0 0 0 0 0 0 0 0 0 0 0 1 1 1 1 0 0 0 1 1 1 0 0 0 0 0 1 1 1 1 0 0 0 0 1 1 0 0 0 0 0
Wind_Speed
3 4 3 2 3 4 4 7 7 7 7 9 6 5 4 3 3 3 4 4 5 5 5 5 5 5 6 6 6 6 6 6 6 5 4 4 3 3 3 3 3 3 3 3
1 1 1 2 4 5 5 5 5 4 7 5 3 1 2 3 4 4 4 5 5 5 5 6 5 5 5 6 6 7 7 6 5 5 4 4 4 3 3 3 2 3 3 3
2 2 2 4 5 4 3 3 5 7 7 1 0 2 3 4 5 5 5 5 6 6 7 6 7 6 6 6 6 7 7 6 5 5 5 4 4 4 4 3 3 3 3 3
2 2 4 7 2 2 3 3 3 4 3 3 3 2 1 2 4 4 4 4 4 5 5 5 5 5 5 5 6 6 6 5 5 6 5 4 5 5 4 4 4 3 3 3
3 2 4 4 2 1 2 3 2 2 2 0 1 3 3 2 1 3 3 2 3 3 3 3 4 5 6 5 5 6 6 6 6 6 6 6 6 5 4 4 4 3 3 3
4 3 5 6 3 2 2 3 2 1 2 2 2 1 3 2 0 0 1 1 1 2 2 2 3 5 6 6 5 6 6 6 6 6 6 7 6 5 3 3 4 4 3 3
3 3 6 5 4 1 3 5 2 1 2 2 2 2 1 1 2 2 2 2 3 4 3 2 2 5 5 4 5 5 4 4 4 6 6 5 4 4 3 3 3 3 3 2
3 3 6 3 2 2 4 3 1 0 1 2 2 2 2 3 2 3 3 4 4 4 3 2 2 4 4 4 4 2 3 3 4 4 4 4 4 4 4 4 4 4 3 2
5 5 4 2 1 2 1 1 1 1 1 3 3 2 3 3 3 3 3 3 3 4 4 3 2 2 3 2 1 2 3 3 3 3 3 4 5 5 4 4 4 3 4 4
1 3 3 3 2 2 2 1 0 1 2 3 3 3 3 3 3 4 3 2 2 4 4 3 2 2 1 1 2 3 3 3 2 3 3 2 3 4 4 4 4 4 4 4
1 3 3 4 3 2 3 3 3 3 3 3 4 4 3 3 3 3 3 2 3 3 3 2 2 2 2 2 2 2 2 2 2 3 3 3 2 3 4 4 5 6 5 5
4 4 2 2 2 2 4 4 3 4 4 4 4 3 3 2 2 3 3 2 3 3 3 2 3 3 3 2 1 2 1 2 2 2 2 2 2 1 1 2 3 5 4 5
4 2 1 1 1 2 3 3 3 3 3 3 3 3 3 2 1 2 2 3 3 3 2 2 3 3 3 2 1 1 1 1 1 2 2 2 3 3 2 1 1 2 3 4
2 2 1 0 0 1 3 3 3 3 3 3 3 3 2 2 1 2 2 1 2 2 2 2 2 2 2 2 1 1 0 1 1 2 2 2 2 2 2 2 2 2 3 4
1 1 2 1 2 2 2 4 3 2 2 2 2 2 2 2 1 1 1 1 2 2 2 2 2 2 2 1 2 1 0 0 1 1 1 1 2 2 2 2 2 2 1 1
1 2 2 2 2 2 2 3 2 1 1 1 1 1 1 1 1 1 1 2 2 1 1 1 1 2 1 1 1 1 0 1 1 1 1 1 1 1 2 2 2 2 2 2
3 2 1 1 1 1 1 1 1 1 1 1 0 0 1 2 1 1 1 1 0 1 1 1 2 2 1 1 1 1 0 0 0 0 1 1 1 2 2 2 2 2 2 2
4 4 4 4 3 2 1 1 0 0 0 0 1 1 2 2 1 1 1 0 1 1 1 1 2 1 0 0 1 1 1 1 1 1 1 1 1 1 2 2 2 2 1 1
2 3 3 2 3 2 2 1 1 0 0 1 1 1 2 1 1 1 1 1 0 1 3 3 2 1 1 1 0 1 1 1 1 1 1 1 1 1 1 2 2 2 2 1
2 3 3 2 2 2 2 1 1 0 0 1 1 1 1 1 1 1 1 1 2 3 3 2 2 1 2 2 1 1 2 2 2 2 2 2 2 2 2 2 2 2 2 2
2 2 3 2 1 1 1 1 1 1 1 1 2 2 1 1 1 1 1 1 3 2 1 1 1 1 2 1 1 1 2 2 2 2 2 2 2 2 2 2 2 2 2 2
2 2 2 2 2 1 1 1 1 1 1 1 1 1 1 0 1 1 2 2 3 2 1 1 1 2 2 2 1 1 2 2 2 2 2 2 2 2 2 2 2 2 3 3
2 2 2 2 2 1 0 0 0 1 2 2 2 2 2 2 1 1 2 2 1 1 1 1 2 2 2 1 1 1 2 2 2 2 2 2 2 3 3 3 3 3 3 3
1 1 1 1 2 2 1 1 0 0 1 1 1 2 2 1 1 2 2 2 1 1 1 2 2 2 1 0 1 1 1 2 2 2 2 2 3 3 3 3 3 3 3 3
1 1 2 2 2 1 1 0 1 1 1 1 1 1 1 1 2 2 1 1 0 0 1 1 2 2 1 1 1 1 1 2 2 2 2 2 2 2 3 3 3 3 3 3
2 1 1 1 1 1 1 1 0 0 0 0 1 1 0 1 1 1 0 1 1 1 1 1 1 1 0 1 1 2 1 1 1 1 2 2 2 2 2 3 3 3 3 3
2 1 1 1 1 0 1 1 1 1 1 1 1 1 1 0 0 0 0 0 1 1 1 1 1 1 1 1 1 1 1 1 1 1 1 2 2 2 2 3 2 3 3 3
Wind_Direction
217 215 187 205 219 201 192 187 189 224 230 249 246 234 228 209 186 176 187 194 193 192 196 196 192 191 188 186 179 174 172 180 189 185 173 163 165 170 172 175 173 161 159 168
296 261 182 239 237 220 223 211 213 230 252 255 259 223 204 188 177 190 204 206 196 188 190 194 193 190 187 185 178 169 174 184 178 167 164 166 172 171 170 174 165 162 173 175
246 300 16 269 235 210 205 212 191 212 238 229 244 222 210 198 192 200 206 207 203 195 195 195 190 185 185 183 170 168 176 179 169 167 173 179 179 176 182 180 170 172 180 174
136 90 219 246 255 186 184 244 240 245 250 208 212 223 205 189 192 203 206 202 210 207 200 195 181 170 168 163 164 170 172 176 175 171 175 180 182 186 189 185 182 185 192 189
128 168 263 285 267 158 164 275 290 270 277 331 80 52 3 346 220 202 205 205 207 207 188 172 166 159 146 148 158 167 177 182 184 180 179 183 194 196 192 187 188 187 188 189
132 156 224 244 285 290 121 269 305 313 215 187 110 126 264 314 308 155 68 110 111 95 99 130 153 145 145 158 168 183 189 189 185 181 185 190 197 195 188 186 191 186 185 198
155 198 254 265 302 49 164 242 287 262 194 169 189 204 221 55 63 92 95 96 100 100 97 104 130 138 148 163 190 200 190 178 180 186 191 190 187 187 180 182 179 181 190 202
148 179 250 314 57 156 232 282 272 102 127 118 103 80 90 84 76 90 92 89 101 103 90 77 108 138 156 188 210 188 165 167 185 186 188 186 176 184 182 179 183 191 198 212
185 210 253 305 232 256 231 261 266 123 90 128 116 93 81 88 80 78 90 90 96 105 90 69 85 127 160 210 179 145 148 168 176 172 184 184 180 185 185 185 190 204 208 220
236 281 299 335 353 11 10 318 301 115 112 115 117 107 91 89 84 78 71 77 83 87 84 69 58 74 84 78 125 142 161 176 170 165 180 181 183 188 188 191 195 206 216 224
243 279 331 359 9 28 34 49 62 64 73 87 99 101 106 99 95 92 83 77 91 97 95 77 60 56 45 61 109 139 165 173 167 169 180 187 187 194 194 200 201 201 213 214
217 228 185 264 320 22 63 64 75 75 65 70 88 96 97 98 86 83 88 89 86 83 79 65 60 48 29 30 103 137 155 175 176 178 183 185 182 193 214 206 214 214 210 202
227 222 179 224 2 29 72 68 72 80 90 87 81 92 93 96 87 95 90 85 89 83 70 62 61 46 24 17 53 117 161 184 186 186 191 192 188 187 207 273 246 241 237 223
207 139 80 263 163 68 84 75 67 64 74 92 93 85 84 88 95 98 100 100 92 86 79 72 59 32 4 24 57 89 152 176 184 194 195 195 198 202 202 210 240 275 267 245
266 168 191 171 82 62 85 95 85 67 66 65 78 86 79 89 101 117 137 116 92 78 60 54 38 354 352 47 70 67 97 180 175 178 178 182 185 191 204 215 231 250 282 287
98 80 113 115 107 85 79 95 108 131 141 101 89 65 111 138 148 148 121 108 114 111 31 22 327 302 331 79 98 82 53 55 120 161 167 172 184 194 207 218 230 237 243 249
139 136 129 130 137 121 113 137 161 186 175 154 175 169 116 115 109 81 36 12 228 228 215 248 279 294 338 95 136 160 188 333 41 168 191 199 205 215 221 223 235 247 249 237
181 185 182 174 165 148 130 102 121 243 274 242 61 103 123 141 170 221 260 351 19 353 320 278 271 274 337 50 167 185 188 193 192 206 218 215 219 222 225 232 241 251 277 252
147 154 158 156 157 152 166 203 240 265 39 110 130 160 184 200 198 218 196 123 120 293 291 297 305 307 293 284 199 187 202 210 216 226 231 238 238 236 234 241 250 257 261 260
120 128 132 128 129 142 169 207 225 285 261 134 129 130 152 207 193 191 183 221 239 240 256 281 294 289 283 275 267 207 213 222 231 240 239 239 241 243 242 250 256 261 266 263
128 127 124 122 131 159 182 189 182 227 258 162 166 183 196 254 254 187 172 278 283 274 268 265 258 271 280 279 265 237 233 234 234 235 235 235 240 246 251 257 260 262 265 268
150 146 151 157 163 198 256 222 212 201 180 181 191 170 126 287 271 239 233 240 271 283 263 250 248 262 284 282 247 245 244 242 236 229 227 228 229 238 246 253 257 259 261 261
162 162 160 166 171 187 207 87 175 178 177 191 200 212 219 224 212 189 257 270 267 275 256 256 282 302 308 280 245 238 235 232 233 232 232 232 233 236 243 251 257 259 263 265
131 120 114 107 105 104 85 319 342 265 195 189 197 205 205 216 276 255 241 272 289 281 258 277 303 319 319 266 254 242 236 242 246 244 243 246 250 246 242 245 254 262 262 264
109 109 107 112 120 156 203 49 43 19 18 14 334 243 206 195 219 262 272 257 264 262 287 309 331 350 7 325 299 280 260 251 247 242 241 245 252 255 256 257 258 257 258 259
105 122 160 180 180 179 165 128 115 277 319 7 324 311 260 211 228 246 272 288 282 277 291 318 344 9 343 314 306 304 296 282 273 264 260 260 260 261 264 266 266 262 262 264
65 66 62 34 12 129 158 157 170 213 203 181 237 291 305 325 149 117 59 8 341 336 334 335 335 317 304 305 304 306 302 287 275 276 281 278 271 265 267 270 272 275 275 273